Simultaneous Nadir Overpasses (SNOs) Predictions

Prediction of SNOs between LANDSAT-8 and METOP-B Satellite Orbit:

Table of predicted SNOs for the next 14.0 days since TLE Epoch: 5/28/2022
Index Date (LANDSAT-8) Time (LANDSAT-8) Lat,Lon (LANDSAT-8) SZA (LANDSAT-8 ) Date (METOP-B) Time (METOP-B) Lat,Lon (METOP-B) SZA (METOP-B ) Distance(km) Time Diff (sec)
1 05/29/2022 13:23:37 81.15, 19.63 61.77 05/29/2022 13:22:28 81.15, 19.69 61.75 1.04 69
2 05/29/2022 14:13:03 -81.17,-172.42 118.19 05/29/2022 14:13:07 -81.17,-172.29 118.17 2.27 4
3 06/01/2022 08:57:54 81.15, 86.04 61.36 06/01/2022 08:56:51 81.14, 85.89 61.31 2.87 63
4 06/01/2022 09:47:20 -81.17,-105.99 118.60 06/01/2022 09:47:30 -81.17,-106.05 118.61 1.32 10
5 06/04/2022 04:32:12 81.14, 152.34 60.97 06/04/2022 04:31:14 81.15, 152.41 60.96 1.31 58
6 06/04/2022 05:21:38 -81.17, -39.67 118.98 06/04/2022 05:21:53 -81.17, -39.49 118.95 3.13 15
7 06/07/2022 00:06:29 81.15,-141.12 60.68 06/07/2022 00:05:37 81.15,-141.12 60.65 0.15 52
8 06/07/2022 00:55:55 -81.18, 26.89 119.27 06/07/2022 00:56:16 -81.18, 27.02 119.25 2.06 21
9 06/09/2022 19:40:45 81.15, -74.70 60.41 06/09/2022 19:39:59 81.15, -74.72 60.39 0.21 46



Historial Predications of SNOs between LANDSAT-8 and METOP-B
